Weather in Tlumach

Ukraine / Ivano-Frankovsk District     48°51′11″N   25°00′47″E
temp.,
°C
wind,
m/s
gust,
m/s
humid.,
%
clouds,
%
prec.,
mm/h
press.,
hPa
HPBL,
m
8 may, sat
sat800:00+8w3784100 0.0 1009148
03:00+5nw81394100 4.2 1013880
06:00+5wnw71290100 1.6 1014931
09:00+4wnw91475100 1.8 10181294
12:00+7nw8116782 0.1 10191497
15:00+8nw7106545 0.3 10201416
18:00+9nnw79575 0.2 10201223
21:00+5wnw22815 0.3 102215
9 may, sun
sun900:00+3w22880 0.0 102430
03:00+2sw12837 0.0 102510
06:00+2sw118252 0.0 102610
09:00+8sse22654 0.0 1026283
12:00+13se335112 0.0 10251297
15:00+15ese334730 0.0 10241429
18:00+15se44545 0.0 1023984
21:00+9se410726 0.0 1024156
10 may, mon
mon1000:00+7se4107530 0.0 1025191
03:00+5se37865 0.0 1025135
06:00+4se37875 0.0 1024114
09:00+10se58705 0.0 1024360
12:00+16se795962 0.0 1023759
15:00+18se89535 0.0 1021947
18:00+18se812630 0.0 1020770
21:00+13se614680 0.0 1021448
11 may, tue
tue1100:00+11se513710 0.0 1022365
03:00+10se513750 0.0 1021338
06:00+8se512825 0.0 1021291
09:00+12se712700 0.0 1021487
12:00+17se911580 0.0 1020830
15:00+19se810530 0.0 10181011
18:00+18ese811610 0.0 1017880
21:00+14ese715640 0.0 1016479
12 may, wed
wed1200:00+11se615632 0.0 1016398
03:00+9se513720 0.0 1015272
06:00+8se513900 0.0 1015286
09:00+12se8128665 0.0 1013564
12:00+13ese81179100 0.0 1012826
15:00+16se89648 0.0 10101144
18:00+16ese710630 0.0 10081365
21:00+11ese9157521 0.0 1009528